GW0115 Weather Reports


time (UTC)temp
C
wind
direction
speed
KPH
gust
KPH
rain 1hr
cm
rain 24hr
cm
rain mn
cm
humidity
%
barometer
mb
20260902163107 20 0 0.0 9.7 0.00 0.00 0.00 76 1019.3
20260902161615 20 0 0.0 4.8 0.00 0.00 0.00 77 1019.4
20260902160105 20 0 0.0 0.0 0.00 0.00 0.00 78 1019.3
20260902154604 20 0 0.0 6.4 0.00 0.00 0.00 78 1019.6
20260902153108 20 0 0.0 9.7 0.00 0.00 0.00 77 1019.7
20260902151556 20 0 0.0 6.4 0.00 0.00 0.00 78 1020.0
20260902150055 19 0 0.0 12.9 0.00 0.00 0.00 78 1020.1
20260902144551 19 0 0.0 11.3 0.00 0.08 0.00 78 1020.1
20260902143057 19 278 0.0 14.5 0.00 0.08 0.00 79 1020.2
20260902141554 19 0 0.0 9.7 0.00 0.08 0.00 79 1020.0
20260902140057 19 0 0.0 0.0 0.00 0.08 0.00 80 1019.9
20260902134557 19 0 0.0 11.3 0.00 0.13 0.00 80 1019.8
20260902133101 19 0 0.0 0.0 0.00 0.13 0.00 81 1019.8
20260902131553 19 0 0.0 1.6 0.00 0.13 0.00 81 1019.6
20260902130110 19 0 0.0 0.0 0.00 0.13 0.00 82 1019.3
20260902124600 19 0 0.0 0.0 0.00 0.15 0.00 85 1019.2
20260902123107 19 0 0.0 0.0 0.00 0.15 0.00 83 1019.4
20260902121556 19 0 0.0 3.2 0.00 0.15 0.00 84 1019.4
20260902114603 19 0 0.0 0.0 0.00 0.36 0.00 87 1019.2
20260902113058 19 0 0.0 1.6 0.00 0.36 0.00 85 1019.3
20260902111601 19 0 0.0 0.0 0.00 0.36 0.00 86 1019.3
20260902110100 19 0 0.0 4.8 0.00 0.36 0.00 86 1019.5
20260902104610 19 0 0.0 0.0 0.00 0.58 0.00 87 1019.1
20260902103111 19 0 0.0 0.0 0.00 0.58 0.00 88 1019.1
20260902101605 19 0 0.0 0.0 0.00 0.58 0.00 88 1018.9
20260902100055 18 0 0.0 0.0 0.00 0.58 0.00 89 1018.9
20260902094558 18 0 0.0 0.0 0.00 0.89 0.00 89 1018.9
20260902093057 18 0 0.0 0.0 0.00 0.89 0.00 89 1018.5
20260902091554 18 0 0.0 0.0 0.00 0.89 0.00 89 1018.5
20260902090051 18 0 0.0 0.0 0.00 0.89 0.00 90 1018.7
20260902084558 18 0 0.0 0.0 0.00 0.89 0.00 92 1018.9
20260902083100 18 0 0.0 0.0 0.00 0.89 0.00 93 1018.8
20260902081606 18 0 0.0 0.0 0.00 0.89 0.00 95 1018.7
20260902080057 18 0 0.0 0.0 0.00 0.89 0.00 95 1018.6
20260902074604 18 0 0.0 0.0 0.00 0.89 0.00 95 1018.6
20260902073103 17 0 0.0 0.0 0.00 0.89 0.00 95 1018.6
20260902071602 17 0 0.0 0.0 0.00 0.89 0.00 95 1018.7
20260902070100 17 0 0.0 0.0 0.00 0.89 0.00 95 1018.6
20260902064604 18 0 0.0 0.0 0.00 0.89 0.00 95 1018.6
20260902063106 18 0 0.0 0.0 0.00 0.89 0.00 95 1018.7
20260902061621 18 0 0.0 0.0 0.00 0.89 0.00 94 1018.8
20260902060058 17 0 0.0 0.0 0.00 0.89 0.00 95 1018.6
20260902054555 17 0 0.0 0.0 0.00 0.89 0.00 95 1018.6
20260902053104 17 0 0.0 0.0 0.00 0.89 0.00 95 1018.5
20260902051607 18 0 0.0 0.0 0.00 0.89 0.00 95 1018.2
20260902050107 18 0 0.0 0.0 0.00 0.89 0.00 95 1018.3
20260902044624 18 0 0.0 0.0 0.00 0.89 0.00 95 1018.0
20260902043058 18 0 0.0 0.0 0.00 0.89 0.00 95 1018.0
20260902041605 18 0 0.0 0.0 0.00 0.89 0.00 94 1018.0
20260902040109 18 0 0.0 0.0 0.00 0.89 0.00 94 1018.0
20260902034601 18 0 0.0 0.0 0.00 0.89 0.89 94 1018.0
20260902033052 18 0 0.0 0.0 0.00 0.89 0.89 93 1017.8
20260902031615 18 0 0.0 0.0 0.00 0.89 0.89 92 1017.7
20260902030057 19 0 0.0 0.0 0.00 0.89 0.89 91 1017.7
20260902024600 19 0 0.0 3.2 0.00 0.89 0.89 90 1017.5
20260902023055 19 0 0.0 0.0 0.00 0.89 0.89 90 1017.4
20260902021553 19 0 0.0 0.0 0.00 0.89 0.89 89 1017.6
20260902020058 20 0 0.0 0.0 0.00 0.89 0.89 88 1017.5
20260902014555 20 0 1.6 6.4 0.00 0.89 0.89 87 1017.4
20260902013104 20 0 0.0 9.7 0.00 0.89 0.89 87 1017.6
20260902011551 20 0 0.0 1.6 0.00 0.89 0.89 87 1017.6
20260902010100 20 0 0.0 6.4 0.00 0.89 0.89 87 1017.1
20260902004556 20 0 0.0 0.0 0.00 0.89 0.89 89 1017.2
20260902003102 20 0 0.0 0.0 0.00 0.89 0.89 90 1017.1
20260902001603 19 0 0.0 0.0 0.00 0.89 0.89 92 1017.0
20260902000056 19 0 0.0 0.0 0.00 0.89 0.89 92 1017.1
20260901234604 20 0 0.0 0.0 0.00 0.89 0.89 92 1017.1
20260901233058 20 0 0.0 0.0 0.00 0.89 0.89 91 1017.0
20260901231602 20 0 0.0 0.0 0.00 0.89 0.89 91 1016.7
20260901230111 20 0 0.0 0.0 0.00 0.89 0.89 89 1016.7
20260901224600 20 0 0.0 0.0 0.00 0.89 0.89 88 1016.4
20260901223055 20 0 0.0 0.0 0.00 0.89 0.89 90 1016.4
20260901221607 21 0 0.0 0.0 0.00 0.89 0.89 89 1016.3
20260901220100 21 0 0.0 0.0 0.00 0.89 0.89 89 1016.4
20260901214555 21 0 0.0 0.0 0.00 0.89 0.89 88 1016.5
20260901213056 21 0 0.0 0.0 0.00 0.89 0.89 90 1016.4
20260901211600 21 0 0.0 0.0 0.00 0.89 0.89 89 1016.5
20260901210057 21 0 0.0 0.0 0.00 0.89 0.89 86 1016.2
20260901204553 21 0 0.0 0.0 0.00 0.89 0.89 85 1016.0
20260901203102 22 0 0.0 0.0 0.00 0.89 0.89 86 1016.0
20260901201603 22 0 0.0 0.0 0.00 0.89 0.89 88 1016.1
20260901200100 21 0 0.0 0.0 0.00 0.89 0.89 87 1016.2
20260901194607 21 0 0.0 0.0 0.00 0.89 0.89 87 1016.2
20260901193059 21 0 0.0 0.0 0.00 0.89 0.89 89 1016.0
20260901191553 21 0 0.0 0.0 0.00 0.89 0.89 92 1016.1
20260901190059 20 0 0.0 0.0 0.00 0.89 0.89 92 1016.3
20260901184607 20 0 0.0 0.0 0.00 0.89 0.89 93 1016.6
20260901183118 20 0 0.0 0.0 0.00 0.89 0.89 92 1016.3
20260901181552 20 0 0.0 0.0 0.00 0.89 0.89 93 1016.3
20260901174555 19 0 0.0 0.0 0.00 0.89 0.89 94 1016.4
20260901173124 20 0 0.0 0.0 0.00 0.89 0.89 94 1016.4
20260901171602 20 0 0.0 0.0 0.00 0.89 0.89 96 1016.4
20260901164557 18 0 0.0 0.0 0.00 0.89 0.89 96 1016.4